Orlando International, FL

3:20 AM EDT on May 29, 2017 (GMT -0400)
Orlando International

Weather History for KMCO - January, 2012

Change the Weather History Date:

Friday, January 6, 2012

  Actual Average Record
Temperature  
Mean Temperature 56 °F 60 °F  
Max Temperature 71 °F 71 °F 88 °F (1921)
Min Temperature 41 °F 49 °F 28 °F (1919)
Degree Days  
Heating Degree Days 9 6  
Month to date heating degree days 75 36  
Since 1 July heating degree days 158 227  
Cooling Degree Days 0 1  
Month to date cooling degree days 1 9  
Year to date cooling degree days 1 9  
Growing Degree Days 6 (Base 50)    
Moisture  
Dew Point 46 °F    
Average Humidity 69    
Maximum Humidity 100    
Minimum Humidity 38    
Precipitation  
Precipitation 0.00 in 0.08 in 1.54 in (1970)
Month to date precipitation T 0.45  
Year to date precipitation T 0.45  
Sea Level Pressure  
Sea Level Pressure 30.19 in    
Wind  
Wind Speed 2 mph (South)    
Max Wind Speed 9 mph    
Max Gust Speed 12 mph    
Visibility 8 miles    
Events Fog    
T = Trace of Precipitation, MM = Missing Value Source: NWS Daily Summary

Daily Weather History Graph

Daily Weather History Graph

Search for Another Location

Airport or City:

Trip Planner

Search our weather history database for the weather conditions in past years. The results will help you decide how hot, cold, wet, or windy it might be!

Date:

Astronomy

Jan. 06, 2012 Rise Set
Actual Time 7:18 AM EST 5:43 PM EST
Civil Twilight 6:52 AM EST 6:09 PM EST
Nautical Twilight 6:23 AM EST 6:38 PM EST
Astronomical Twilight 5:55 AM EST 7:07 PM EST
Moon 3:34 PM EST (1/6) 4:55 AM EST (1/6)
Length of Visible Light 11h 16m
Length of Day
10h 24m
Waxing Gibbous, 93% of the Moon is Illuminated
Jan 6
Waxing Gibbous
Jan 9
Full
Jan 16
Last Quarter
Jan 23
New
Jan 30
First Quarter

Hourly Weather History & Observations

Time (EST) Temp. Dew Point Humidity Pressure Visibility Wind Dir Wind Speed Gust Speed Precip Events Conditions
12:53 AM 46.9 °F 45.0 °F 93% 30.21 in 10.0 mi Calm Calm - N/A   Clear
1:53 AM 46.9 °F 45.0 °F 93% 30.21 in 10.0 mi WSW 3.5 mph - N/A   Clear
2:53 AM 46.9 °F 46.0 °F 97% 30.20 in 10.0 mi Calm Calm - N/A   Clear
3:38 AM 44.6 °F 44.6 °F 100% 30.19 in 6.0 mi Calm Calm - N/A Fog Partly Cloudy
3:51 AM 42.8 °F 42.8 °F 100% 30.20 in 4.0 mi Calm Calm - N/A Fog Scattered Clouds
3:53 AM 42.1 °F 42.1 °F 100% 30.19 in 4.0 mi Calm Calm - N/A Fog Scattered Clouds
4:00 AM 42.8 °F 42.8 °F 100% 30.20 in 4.0 mi Calm Calm - N/A Fog Scattered Clouds
4:53 AM 42.1 °F 42.1 °F 100% 30.20 in 5.0 mi Calm Calm - N/A Fog Scattered Clouds
5:23 AM 42.8 °F 42.8 °F 100% 30.20 in 5.0 mi Calm Calm - N/A Fog Scattered Clouds
5:37 AM 42.8 °F 42.8 °F 100% 30.20 in 5.0 mi Calm Calm - N/A Fog Scattered Clouds
5:53 AM 43.0 °F 42.1 °F 97% 30.20 in 5.0 mi Calm Calm - N/A Fog Mostly Cloudy
6:03 AM 42.8 °F 42.8 °F 100% 30.21 in 7.0 mi Calm Calm - N/A Fog Patches of Fog
6:53 AM 41.0 °F 41.0 °F 100% 30.22 in 7.0 mi Calm Calm - N/A Fog Patches of Fog
7:53 AM 44.1 °F 44.1 °F 100% 30.23 in 7.0 mi Calm Calm - N/A Fog Patches of Fog
8:53 AM 53.1 °F 52.0 °F 96% 30.24 in 8.0 mi Calm Calm - N/A   Clear
9:53 AM 62.1 °F 54.0 °F 75% 30.26 in 10.0 mi NW 4.6 mph - N/A   Clear
10:53 AM 64.9 °F 52.0 °F 63% 30.25 in 10.0 mi West 4.6 mph - N/A   Partly Cloudy
11:53 AM 66.0 °F 50.0 °F 56% 30.23 in 10.0 mi Calm Calm - N/A   Scattered Clouds
12:53 PM 69.1 °F 48.0 °F 47% 30.19 in 10.0 mi Calm Calm - N/A   Partly Cloudy
1:53 PM 70.0 °F 45.0 °F 41% 30.17 in 10.0 mi Calm Calm - N/A   Partly Cloudy
2:53 PM 71.1 °F 45.0 °F 39% 30.14 in 10.0 mi Calm Calm - N/A   Clear
3:53 PM 70.0 °F 46.0 °F 42% 30.14 in 10.0 mi SW 5.8 mph - N/A   Clear
4:53 PM 68.0 °F 46.9 °F 47% 30.15 in 10.0 mi SSE 8.1 mph - N/A   Clear
5:53 PM 64.9 °F 46.9 °F 52% 30.15 in 10.0 mi SE 3.5 mph - N/A   Clear
6:53 PM 55.9 °F 46.9 °F 72% 30.16 in 10.0 mi SSE 5.8 mph - N/A   Clear
7:53 PM 55.9 °F 46.9 °F 72% 30.17 in 10.0 mi SSE 3.5 mph - N/A   Clear
8:53 PM 54.0 °F 48.9 °F 83% 30.18 in 10.0 mi ESE 3.5 mph - N/A   Clear
9:53 PM 54.0 °F 48.9 °F 83% 30.19 in 10.0 mi Calm Calm - N/A   Clear
10:53 PM 52.0 °F 48.0 °F 86% 30.18 in 10.0 mi SSW 3.5 mph - N/A   Clear
11:53 PM 50.0 °F 46.0 °F 86% 30.17 in 10.0 mi Calm Calm - N/A   Clear